| time (UTC) | temp C | wind direction | speed KPH | gust KPH | rain 1hr cm | rain 24hr cm | rain mn cm | humidity % | barometer mb |
| 20260507014604 | 10 | 141 | 3.2 | 4.8 | 0.00 | 0.00 | 0.00 | 64 | 1008.9 |
| 20260507013520 | 9 | 135 | 3.2 | 9.7 | 0.00 | 0.00 | 0.00 | 64 | 1008.9 |
| 20260507012516 | 9 | 137 | 3.2 | 4.8 | 0.00 | 0.00 | 0.00 | 63 | 1008.8 |
| 20260507011531 | 10 | 139 | 1.6 | 3.2 | 0.00 | 0.00 | 0.00 | 63 | 1008.7 |
| 20260507010528 | 10 | 139 | 0.0 | 3.2 | 0.00 | 0.00 | 0.00 | 63 | 1008.8 |
| 20260507005523 | 10 | 128 | 1.6 | 3.2 | 0.00 | 0.00 | 0.00 | 63 | 1008.8 |
| 20260507004519 | 10 | 131 | 3.2 | 6.4 | 0.00 | 0.00 | 0.00 | 62 | 1008.7 |
| 20260507003535 | 10 | 127 | 4.8 | 11.3 | 0.00 | 0.00 | 0.00 | 61 | 1008.8 |
| 20260507002531 | 10 | 128 | 3.2 | 9.7 | 0.00 | 0.00 | 0.00 | 60 | 1008.9 |
| 20260507001527 | 10 | 127 | 4.8 | 9.7 | 0.00 | 0.00 | 0.00 | 61 | 1008.8 |
| 20260507000523 | 10 | 125 | 6.4 | 11.3 | 0.00 | 0.00 | 0.00 | 61 | 1008.7 |
| 20260506235559 | 10 | 125 | 4.8 | 11.3 | 0.00 | 0.00 | 0.00 | 60 | 1008.7 |
| 20260506234535 | 10 | 126 | 4.8 | 11.3 | 0.00 | 0.00 | 0.00 | 59 | 1008.7 |
| 20260506233551 | 10 | 126 | 6.4 | 11.3 | 0.00 | 0.00 | 0.00 | 60 | 1008.6 |
| 20260506232527 | 10 | 120 | 6.4 | 11.3 | 0.00 | 0.00 | 0.00 | 59 | 1008.5 |
| 20260506231523 | 10 | 126 | 8.0 | 14.5 | 0.00 | 0.00 | 0.00 | 59 | 1008.4 |
| 20260506230519 | 10 | 78 | 6.4 | 16.1 | 0.00 | 0.00 | 0.00 | 58 | 1008.5 |
| 20260506225535 | 11 | 71 | 4.8 | 12.9 | 0.00 | 0.00 | 0.00 | 58 | 1008.7 |
| 20260506224531 | 11 | 69 | 4.8 | 12.9 | 0.00 | 0.00 | 0.00 | 58 | 1008.7 |
| 20260506223527 | 11 | 69 | 4.8 | 9.7 | 0.00 | 0.00 | 0.00 | 57 | 1008.6 |
| 20260506222523 | 10 | 66 | 3.2 | 9.7 | 0.00 | 0.00 | 0.00 | 57 | 1008.7 |
| 20260506221559 | 10 | 68 | 4.8 | 9.7 | 0.00 | 0.00 | 0.00 | 57 | 1008.7 |
| 20260506220534 | 10 | 65 | 3.2 | 11.3 | 0.00 | 0.00 | 0.00 | 57 | 1008.7 |
| 20260506215530 | 10 | 64 | 3.2 | 9.7 | 0.00 | 0.00 | 0.00 | 57 | 1008.6 |
| 20260506214527 | 10 | 64 | 3.2 | 9.7 | 0.00 | 0.00 | 0.00 | 57 | 1008.7 |
| 20260506213543 | 11 | 67 | 3.2 | 9.7 | 0.00 | 0.00 | 0.00 | 58 | 1008.5 |
| 20260506212518 | 10 | 73 | 6.4 | 12.9 | 0.00 | 0.00 | 0.00 | 59 | 1008.5 |
| 20260506211535 | 10 | 62 | 1.6 | 4.8 | 0.00 | 0.00 | 0.00 | 59 | 1008.5 |
| 20260506210531 | 10 | 58 | 1.6 | 4.8 | 0.00 | 0.00 | 0.00 | 58 | 1008.5 |
| 20260506205527 | 10 | 62 | 1.6 | 3.2 | 0.00 | 0.00 | 0.00 | 58 | 1008.3 |
| 20260506204542 | 10 | 65 | 4.8 | 11.3 | 0.00 | 0.00 | 0.00 | 59 | 1008.3 |
| 20260506203619 | 10 | 62 | 3.2 | 6.4 | 0.00 | 0.00 | 0.00 | 59 | 1008.3 |
| 20260506202535 | 10 | 62 | 4.8 | 11.3 | 0.00 | 0.00 | 0.00 | 59 | 1008.4 |
| 20260506201530 | 10 | 54 | 3.2 | 6.4 | 0.00 | 0.00 | 0.00 | 60 | 1008.5 |
| 20260506200526 | 10 | 60 | 3.2 | 9.7 | 0.00 | 0.00 | 0.00 | 60 | 1008.4 |
| 20260506195522 | 10 | 66 | 4.8 | 12.9 | 0.00 | 0.00 | 0.00 | 59 | 1008.6 |
| 20260506194519 | 10 | 60 | 4.8 | 14.5 | 0.00 | 0.00 | 0.00 | 60 | 1008.5 |
| 20260506193535 | 10 | 63 | 4.8 | 22.5 | 0.00 | 0.00 | 0.00 | 59 | 1008.5 |
| 20260506192530 | 11 | 62 | 4.8 | 12.9 | 0.00 | 0.00 | 0.00 | 58 | 1008.4 |
| 20260506191527 | 11 | 24 | 4.8 | 11.3 | 0.00 | 0.00 | 0.00 | 51 | 1008.3 |
| 20260506190523 | 11 | 311 | 1.6 | 9.7 | 0.00 | 0.00 | 0.00 | 50 | 1008.3 |
| 20260506185539 | 12 | 313 | 3.2 | 6.4 | 0.00 | 0.00 | 0.00 | 51 | 1008.2 |
| 20260506184534 | 11 | 311 | 3.2 | 12.9 | 0.00 | 0.00 | 0.00 | 52 | 1008.4 |
| 20260506183531 | 11 | 311 | 3.2 | 9.7 | 0.00 | 0.00 | 0.00 | 51 | 1008.5 |
| 20260506182526 | 11 | 314 | 3.2 | 11.3 | 0.00 | 0.00 | 0.00 | 52 | 1008.4 |
| 20260506181522 | 11 | 313 | 3.2 | 16.1 | 0.00 | 0.00 | 0.00 | 53 | 1008.5 |
| 20260506180518 | 10 | 304 | 3.2 | 11.3 | 0.00 | 0.00 | 0.00 | 52 | 1008.7 |
| 20260506175535 | 11 | 310 | 4.8 | 14.5 | 0.00 | 0.00 | 0.00 | 52 | 1008.8 |
| 20260506174530 | 10 | 307 | 3.2 | 12.9 | 0.00 | 0.00 | 0.00 | 52 | 1008.8 |
| 20260506173526 | 10 | 309 | 4.8 | 11.3 | 0.00 | 0.03 | 0.00 | 52 | 1008.6 |
| 20260506172522 | 11 | 309 | 3.2 | 9.7 | 0.00 | 0.05 | 0.00 | 51 | 1008.6 |
| 20260506171518 | 11 | 1 | 3.2 | 11.3 | 0.00 | 0.08 | 0.00 | 54 | 1008.5 |
| 20260506170534 | 11 | 314 | 1.6 | 6.4 | 0.00 | 0.13 | 0.00 | 54 | 1008.5 |
| 20260506165530 | 11 | 309 | 4.8 | 11.3 | 0.00 | 0.15 | 0.00 | 54 | 1008.5 |
| 20260506164527 | 11 | 316 | 4.8 | 12.9 | 0.00 | 0.20 | 0.00 | 55 | 1008.7 |
| 20260506163523 | 11 | 308 | 4.8 | 12.9 | 0.00 | 0.25 | 0.00 | 55 | 1008.7 |
| 20260506162539 | 11 | 311 | 3.2 | 11.3 | 0.00 | 0.28 | 0.00 | 55 | 1008.5 |
| 20260506161535 | 11 | 312 | 3.2 | 9.7 | 0.00 | 0.28 | 0.00 | 56 | 1008.5 |
| 20260506160530 | 11 | 311 | 6.4 | 11.3 | 0.00 | 0.28 | 0.00 | 56 | 1008.6 |
| 20260506155526 | 11 | 337 | 3.2 | 9.7 | 0.00 | 0.28 | 0.00 | 57 | 1008.7 |
| 20260506154523 | 11 | 33 | 3.2 | 9.7 | 0.00 | 0.28 | 0.00 | 56 | 1008.5 |
| 20260506153519 | 11 | 344 | 3.2 | 6.4 | 0.00 | 0.28 | 0.00 | 58 | 1008.6 |
| 20260506152535 | 10 | 318 | 1.6 | 6.4 | 0.00 | 0.28 | 0.00 | 58 | 1008.5 |
| 20260506151551 | 10 | 353 | 3.2 | 11.3 | 0.00 | 0.28 | 0.00 | 57 | 1008.4 |
| 20260506150526 | 10 | 327 | 3.2 | 6.4 | 0.00 | 0.28 | 0.00 | 59 | 1008.4 |
| 20260506145523 | 10 | 350 | 1.6 | 6.4 | 0.00 | 0.28 | 0.00 | 60 | 1008.3 |
| 20260506144519 | 10 | 314 | 3.2 | 9.7 | 0.00 | 0.28 | 0.00 | 61 | 1008.3 |
| 20260506143535 | 9 | 317 | 3.2 | 9.7 | 0.00 | 0.28 | 0.00 | 61 | 1008.2 |
| 20260506142530 | 9 | 315 | 3.2 | 9.7 | 0.00 | 0.28 | 0.00 | 63 | 1008.2 |
| 20260506141527 | 8 | 308 | 3.2 | 6.4 | 0.00 | 0.28 | 0.00 | 64 | 1008.1 |
| 20260506140523 | 8 | 324 | 3.2 | 11.3 | 0.00 | 0.28 | 0.00 | 64 | 1008.1 |
| 20260506135519 | 8 | 311 | 3.2 | 9.7 | 0.00 | 0.28 | 0.00 | 64 | 1007.8 |
| 20260506134535 | 7 | 312 | 3.2 | 6.4 | 0.00 | 0.28 | 0.00 | 65 | 1007.8 |
| 20260506133531 | 7 | 314 | 3.2 | 9.7 | 0.00 | 0.28 | 0.00 | 66 | 1007.6 |
| 20260506132547 | 7 | 312 | 3.2 | 9.7 | 0.00 | 0.28 | 0.00 | 66 | 1007.7 |
| 20260506131703 | 7 | 309 | 3.2 | 9.7 | 0.00 | 0.28 | 0.00 | 66 | 1007.4 |
| 20260506130539 | 7 | 313 | 3.2 | 9.7 | 0.00 | 0.28 | 0.00 | 67 | 1007.0 |
| 20260506125535 | 7 | 307 | 3.2 | 6.4 | 0.00 | 0.28 | 0.00 | 68 | 1007.0 |
| 20260506124531 | 6 | 305 | 1.6 | 4.8 | 0.00 | 0.28 | 0.00 | 68 | 1007.0 |
| 20260506123547 | 6 | 306 | 1.6 | 6.4 | 0.00 | 0.28 | 0.00 | 68 | 1006.8 |
| 20260506122543 | 6 | 308 | 3.2 | 11.3 | 0.00 | 0.28 | 0.00 | 67 | 1007.1 |
| 20260506121519 | 6 | 304 | 3.2 | 11.3 | 0.00 | 0.28 | 0.00 | 67 | 1006.8 |
| 20260506120535 | 7 | 310 | 3.2 | 6.4 | 0.00 | 0.28 | 0.00 | 68 | 1006.6 |
| 20260506115531 | 6 | 304 | 4.8 | 12.9 | 0.00 | 0.28 | 0.00 | 66 | 1006.3 |
| 20260506114527 | 7 | 305 | 4.8 | 9.7 | 0.00 | 0.28 | 0.00 | 66 | 1006.2 |
| 20260506113543 | 7 | 308 | 3.2 | 12.9 | 0.00 | 0.28 | 0.00 | 66 | 1006.1 |
| 20260506112539 | 7 | 304 | 1.6 | 9.7 | 0.00 | 0.28 | 0.00 | 66 | 1006.1 |
| 20260506111535 | 7 | 305 | 4.8 | 11.3 | 0.00 | 0.28 | 0.00 | 66 | 1005.8 |
| 20260506110531 | 7 | 305 | 3.2 | 9.7 | 0.00 | 0.28 | 0.00 | 66 | 1005.7 |
| 20260506105547 | 7 | 306 | 3.2 | 9.7 | 0.00 | 0.28 | 0.00 | 66 | 1005.3 |
| 20260506104543 | 7 | 307 | 1.6 | 4.8 | 0.00 | 0.28 | 0.00 | 66 | 1005.3 |
| 20260506103519 | 7 | 307 | 3.2 | 6.4 | 0.00 | 0.28 | 0.00 | 67 | 1005.1 |
| 20260506102535 | 7 | 306 | 1.6 | 4.8 | 0.00 | 0.28 | 0.00 | 67 | 1004.9 |
| 20260506101530 | 7 | 309 | 1.6 | 9.7 | 0.00 | 0.28 | 0.00 | 67 | 1004.8 |
| 20260506100547 | 7 | 308 | 1.6 | 3.2 | 0.00 | 0.28 | 0.00 | 67 | 1004.8 |
| 20260506095543 | 7 | 311 | 1.6 | 6.4 | 0.00 | 0.28 | 0.00 | 67 | 1004.7 |
| 20260506094539 | 7 | 314 | 3.2 | 9.7 | 0.00 | 0.28 | 0.00 | 68 | 1004.8 |
| 20260506093535 | 8 | 311 | 1.6 | 4.8 | 0.00 | 0.28 | 0.00 | 68 | 1004.9 |
| 20260506092551 | 8 | 313 | 1.6 | 6.4 | 0.00 | 0.28 | 0.00 | 68 | 1004.6 |
| 20260506091527 | 8 | 319 | 3.2 | 12.9 | 0.00 | 0.28 | 0.00 | 67 | 1004.6 |
| 20260506090523 | 8 | 309 | 1.6 | 3.2 | 0.00 | 0.28 | 0.00 | 67 | 1004.5 |
| 20260506085519 | 8 | 309 | 0.0 | 1.6 | 0.00 | 0.28 | 0.00 | 66 | 1004.5 |
| 20260506084535 | 8 | 336 | 1.6 | 11.3 | 0.00 | 0.28 | 0.00 | 65 | 1004.3 |
| 20260506083531 | 9 | 289 | 3.2 | 9.7 | 0.00 | 0.28 | 0.00 | 62 | 1004.3 |
| 20260506082527 | 9 | 276 | 1.6 | 4.8 | 0.00 | 0.28 | 0.00 | 60 | 1004.3 |
| 20260506081523 | 10 | 278 | 3.2 | 9.7 | 0.00 | 0.28 | 0.00 | 58 | 1004.3 |
| 20260506080519 | 10 | 276 | 0.0 | 3.2 | 0.00 | 0.28 | 0.00 | 57 | 1004.4 |
| 20260506073527 | 10 | 276 | 3.2 | 6.4 | 0.00 | 0.28 | 0.00 | 57 | 1004.1 |
| 20260506072543 | 10 | 273 | 3.2 | 6.4 | 0.00 | 0.28 | 0.00 | 56 | 1004.2 |
| 20260506071519 | 10 | 271 | 3.2 | 6.4 | 0.00 | 0.28 | 0.00 | 55 | 1004.1 |
| 20260506070534 | 10 | 269 | 1.6 | 4.8 | 0.00 | 0.28 | 0.00 | 54 | 1004.2 |
| 20260506061534 | 10 | 260 | 1.6 | 3.2 | 0.00 | 0.28 | 0.00 | 58 | 1004.2 |
| 20260506060530 | 10 | 0.0 | 0.0 | 0.00 | 0.28 | 0.00 | 57 | 1004.2 | |
| 20260506050606 | 11 | 238 | 1.6 | 6.4 | 0.00 | 0.36 | 0.00 | 54 | 1004.3 |
| 20260506044518 | 11 | 262 | 3.2 | 4.8 | 0.00 | 0.36 | 0.00 | 52 | 1004.1 |
| 20260506043534 | 11 | 267 | 3.2 | 4.8 | 0.00 | 0.36 | 0.00 | 51 | 1004.2 |
| 20260506042530 | 11 | 270 | 3.2 | 6.4 | 0.00 | 0.36 | 0.00 | 50 | 1004.1 |
| 20260506041526 | 11 | 271 | 3.2 | 9.7 | 0.00 | 0.36 | 0.00 | 49 | 1004.2 |
| 20260506040522 | 11 | 270 | 3.2 | 9.7 | 0.00 | 0.36 | 0.00 | 49 | 1004.3 |
| 20260506035537 | 11 | 268 | 4.8 | 9.7 | 0.00 | 0.36 | 0.36 | 50 | 1004.2 |
| 20260506034534 | 11 | 262 | 3.2 | 9.7 | 0.00 | 0.36 | 0.36 | 51 | 1004.4 |
| 20260506033610 | 11 | 265 | 3.2 | 9.7 | 0.00 | 0.36 | 0.36 | 51 | 1004.5 |
| 20260506032525 | 11 | 270 | 4.8 | 6.4 | 0.00 | 0.36 | 0.36 | 51 | 1004.3 |
| 20260506031522 | 11 | 258 | 3.2 | 6.4 | 0.00 | 0.36 | 0.36 | 51 | 1004.3 |
| 20260506030518 | 11 | 263 | 4.8 | 9.7 | 0.00 | 0.36 | 0.36 | 52 | 1004.4 |
| 20260506025534 | 11 | 263 | 4.8 | 9.7 | 0.00 | 0.36 | 0.36 | 52 | 1004.4 |
| 20260506024529 | 11 | 263 | 4.8 | 11.3 | 0.00 | 0.36 | 0.36 | 52 | 1004.3 |
| 20260506023525 | 11 | 263 | 3.2 | 6.4 | 0.00 | 0.36 | 0.36 | 54 | 1004.3 |
| 20260506022521 | 11 | 250 | 3.2 | 9.7 | 0.00 | 0.36 | 0.36 | 56 | 1004.4 |
| 20260506021658 | 11 | 253 | 3.2 | 6.4 | 0.00 | 0.38 | 0.36 | 57 | 1004.2 |
| 20260506020533 | 11 | 260 | 3.2 | 6.4 | 0.00 | 0.41 | 0.36 | 56 | 1004.2 |
| 20260506015550 | 11 | 253 | 1.6 | 4.8 | 0.00 | 0.41 | 0.36 | 58 | 1004.0 |